TITAN 3C TRANSTAGE DEB, 1680

Orbit data source: Space-Track

TITAN 3C TRANSTAGE DEB, 1680 is space debris in LEO originally from a launch on Fri, 15 Oct 1965 UTC launched from the Air Force Eastern Test Range (AFETR). Debris objects in space refer to the collection of defunct objects orbiting the Earth. Examples of debris include non-operational satellites, rocket bodies, and fragments generated from explosions, collisions, or faulty payload assembly.

Loading next visibility...
Identifier
1680, 1965-082AT
Orbit
LEO
Last TLE update
17 hours ago
Origin
Manufacturer
Unknown
Mission
Spacecraft
Bus & Motor
Unknown
Mass
Unknown
Launch date (UTC)
1965-10-15 (60 years ago)
Launch vehicle
Unknown
Launch site
Air Force Eastern Test Range (AFETR)
Object type
Payload
Rocket body
Debris
Shape & HBR
Unknown
Radar Cross Section
2.100 m², Large (>1 m²)

Expand to show TLE details & history

TLE from 17 hours ago
0 TITAN 3C TRANSTAGE DEB
1 01680U 65082AT  25128.94986768  .00000517  00000-0  87342-4 0  9992
2 01680  32.2564  44.9711 0020737 181.2370 178.8229 14.65330856154318
Epoch: 2025-05-08T22:47Z
Definitive object data (Epoch: 2025-05-08T22:47:48.567Z)
Latitude
-0.00002°
Longitude
-163.99431°
Altitude
689.295 km
Speed
7.506 km/s
True Right ascension
02h 59m 53s
True Declination
0° 00' 00"
Sunlit
Object was in daylight at TLE epoch
Visualization TLE readout
Latitude
-16.26201°
Longitude
39.09411°
Altitude
664.777 km
Speed
7.533 km/s
Apparent Right ascension
14h 47m 17s
Apparent Declination
-31° 13' 58"
Sunlit
Object is in full shadow
Visualization observer readout
Local Sidereal Time
00:16:50
Azimuth
274.048° WNW
Elevation
-58.455°
Doppler factor
1
Orbital elements
Apogee altitude
694.23 km
Perigee altitude
664.959 km
Semi-major axis
7,057.732 km
Eccentricity
0.0020737
Inclination
32.2564°
RAAN
44.9711°
Arg. of periapsis
181.237°
True anomaly
178.82777°
Mean anomaly
178.8229°
Eccentric anomaly
178.82534°
Mean motion
3.66054 °/min
BSTAR
0.000087342
Orbital period
98.35 mins
Loading maneuver chart data...
Loading SW <> Apogee altitude chart data...

TITAN 3C TRANSTAGE DEB Visibility forecast

Observer location: undefined°, undefined°

Span
Click to sort rows by Start time (UTC) header in descending order
Start Az.
Max El. time (UTC)
Max El. Az.
Max El.
End time (UTC)
End Az.
6 mins2025-05-09 21:55:24.675Z198.297° SSW2025-05-09 21:58:24.675Z156.782° SSE17.952°2025-05-09 22:01:24.675Z117.726° SE
7 mins2025-05-09 23:38:24.675Z229.4° WSW2025-05-09 23:41:24.675Z182.134° SSW27.634°2025-05-09 23:45:24.675Z116.097° SE
7 mins2025-05-10 01:22:24.675Z239.425° WSW2025-05-10 01:25:24.675Z188.019° SSW26.372°2025-05-10 01:29:24.675Z130.084° SE
4 mins2025-05-10 03:07:24.675Z222.446° SW2025-05-10 03:08:24.675Z208.69° SW14.778°2025-05-10 03:11:24.675Z169.418° S
|